Location: Ottobeuren
(47.9410°N, 10.3007°E)
Time: 07:20:02
(UTC+01:00)

BlueWalker 3 - Visible Passes

Search period start: 08 December 2025 00:00
Search period end: 18 December 2025 00:00
Orbit: 455 x 462 km, 53.2° (Epoch: 06 December)

Date Brightness Start Highest point End Pass type
(mag) Time Alt. Az. Time Alt. Az. Time Alt. Az.
08 Dec 2.0 17:27:22 10° WNW 17:30:59 70° SSW 17:34:35 10° SE visible
08 Dec 4.8 19:06:15 10° WSW 19:07:57 13° SW 19:09:40 10° SSW visible
09 Dec 4.7 18:30:54 10° W 18:33:14 16° SW 18:35:33 10° S visible
10 Dec 4.5 17:55:45 10° W 17:58:28 20° SW 18:01:12 10° S visible
11 Dec 4.3 17:20:41 10° W 17:23:42 25° SW 17:26:42 10° SSE visible
17 Dec 5.4 07:22:22 10° SSE 07:23:54 12° SE 07:25:24 10° ESE visible
